User: anonymous   Login
Location: Unspecified
(0.0000°N, 0.0000°E)
Time: 14:14:09
(UTC+01:00)
Language:

YAOGAN 3 - Orbit

View from above orbital plane
View from above orbital plane
View from above satellite
View from above satellite

Ground track
Ground track

The orbit data is extracted from the following two-line orbital elements,

1 32289U 07055A   15086.13666741  .00000614  00000-0  87396-4 0  9993
2 32289 097.9612 081.0209 0001900 081.0769 279.0662 14.80347504398425
Epoch (UTC): 27 March 2015 03:16:48
Eccentricity: 0.0001900
inclination: 97.9612°
perigee height: 627 km
apogee height: 629 km
right ascension of ascending node: 81.0209°
argument of perigee: 81.0769°
revolutions per day: 14.80347504
mean anomaly at epoch: 279.0662°
orbit number at epoch: 39842

The dashed part of the orbit path shows where the satellite is in the earth's shadow,  

DLR